Location: Unspecified
(56.6833°N, 0.0000°E)
Time: 10:45:13
(UTC+00:00)

BUGSAT 1 - Visible Passes

Search period start: 04 April 2026 00:00
Search period end: 14 April 2026 00:00
Orbit: 501 x 542 km, 98.0° (Epoch: 29 March)

Date Brightness Start Highest point End Pass type
(mag) Time Alt. Az. Time Alt. Az. Time Alt. Az.
4 Apr ? 21:01:41 16° ENE 21:02:20 16° NE 21:04:41 10° NNE visible
4 Apr ? 22:36:48 53° NNW 22:36:48 53° NNW 22:39:43 10° NNW visible
5 Apr ? 20:48:22 12° ENE 20:49:24 13° NE 20:51:10 10° NNE visible
5 Apr ? 22:23:29 60° N 22:23:29 60° N 22:26:37 10° NNW visible
5 Apr ? 23:58:36 13° WNW 23:58:36 13° WNW 23:59:39 10° NW visible
6 Apr ? 20:35:41 10° ENE 20:36:28 11° NE 20:37:15 10° NE visible
6 Apr ? 22:10:09 54° NE 22:10:09 54° NE 22:13:28 10° N visible
6 Apr ? 23:45:16 17° WNW 23:45:16 17° WNW 23:46:59 10° NW visible
7 Apr ? 21:56:48 42° ENE 21:56:48 42° ENE 22:00:17 10° N visible
7 Apr ? 23:31:55 22° WNW 23:31:55 22° WNW 23:34:09 10° NW visible
8 Apr ? 21:43:27 32° ENE 21:43:41 32° ENE 21:47:02 10° N visible
8 Apr ? 23:18:33 29° WNW 23:18:33 29° WNW 23:21:12 10° NNW visible
9 Apr ? 21:30:04 24° ENE 21:30:39 25° ENE 21:33:44 10° N visible
9 Apr ? 23:05:11 39° WNW 23:05:11 39° WNW 23:08:10 10° NNW visible
10 Apr ? 21:16:41 19° ENE 21:17:35 20° ENE 21:20:22 10° N visible
10 Apr ? 22:51:48 55° WNW 22:51:48 55° WNW 22:55:05 10° NNW visible
11 Apr ? 21:03:17 14° ENE 21:04:33 16° NE 21:06:55 10° NNE visible
11 Apr ? 22:38:24 76° WNW 22:38:24 76° WNW 22:41:56 10° NNW visible
12 Apr ? 00:13:30 11° WNW 00:13:30 11° WNW 00:14:02 10° WNW visible
12 Apr ? 20:49:52 10° ENE 20:51:32 13° NE 20:53:19 10° NNE visible
12 Apr ? 22:24:59 76° E 22:25:02 76° ENE 22:28:45 10° NNW visible
13 Apr ? 00:00:05 14° W 00:00:05 14° W 00:01:45 10° NW visible
13 Apr ? 20:37:41 10° ENE 20:38:30 11° NE 20:39:19 10° NE visible
13 Apr ? 22:11:33 54° E 22:11:51 56° ENE 22:15:30 10° N visible
13 Apr ? 23:46:39 19° W 23:46:39 19° W 23:49:00 10° NW visible
